| time (UTC) | temp C | wind direction | speed KPH | gust KPH | rain 1hr cm | rain 24hr cm | rain mn cm | humidity % | barometer mb |
| 20260504175047 | 21 | 0.0 | 0.0 | 0.00 | 0.00 | 0.00 | 31 | 1007.5 | |
| 20260504174546 | 21 | 0.0 | 0.0 | 0.00 | 0.00 | 0.00 | 34 | 1007.6 | |
| 20260504174045 | 21 | 0.0 | 0.0 | 0.00 | 0.00 | 0.00 | 34 | 1007.6 | |
| 20260504173544 | 21 | 0.0 | 0.0 | 0.00 | 0.00 | 0.00 | 33 | 1007.7 | |
| 20260504173044 | 21 | 0.0 | 0.0 | 0.00 | 0.00 | 0.00 | 32 | 1007.8 | |
| 20260504172543 | 21 | 0.0 | 0.0 | 0.00 | 0.00 | 0.00 | 28 | 1007.8 | |
| 20260504172044 | 21 | 0.0 | 0.0 | 0.00 | 0.00 | 0.00 | 30 | 1007.9 | |
| 20260504171542 | 21 | 0.0 | 0.0 | 0.00 | 0.00 | 0.00 | 31 | 1007.9 | |
| 20260504171142 | 20 | 0.0 | 0.0 | 0.00 | 0.00 | 0.00 | 37 | 1007.9 | |
| 20260504151124 | 18 | 0.0 | 0.0 | 0.00 | 0.00 | 0.00 | 39 | 1009.4 | |
| 20260504141117 | 17 | 0.0 | 0.0 | 0.00 | 0.00 | 0.00 | 42 | 1010.1 | |
| 20260504081525 | 4 | 0.0 | 0.0 | 0.00 | 0.00 | 0.00 | 67 | 1010.3 | |
| 20260504081025 | 4 | 0.0 | 0.0 | 0.00 | 0.00 | 0.00 | 67 | 1010.2 | |
| 20260504080129 | 5 | 0.0 | 0.0 | 0.00 | 0.00 | 0.00 | 66 | 1010.2 | |
| 20260504045559 | 2 | 0.0 | 0.0 | 0.00 | 0.00 | 0.00 | 66 | 1010.6 | |
| 20260504045059 | 2 | 0.0 | 0.0 | 0.00 | 0.00 | 0.00 | 66 | 1010.5 | |
| 20260504044604 | 2 | 0.0 | 0.0 | 0.00 | 0.00 | 0.00 | 66 | 1010.6 | |
| 20260504044058 | 2 | 0.0 | 0.0 | 0.00 | 0.00 | 0.00 | 67 | 1010.6 | |
| 20260504043557 | 2 | 0.0 | 0.0 | 0.00 | 0.00 | 0.00 | 66 | 1010.6 | |
| 20260504043101 | 2 | 0.0 | 0.0 | 0.00 | 0.00 | 0.00 | 65 | 1010.6 | |
| 20260504042557 | 2 | 0.0 | 0.0 | 0.00 | 0.00 | 0.00 | 64 | 1010.6 | |
| 20260504042100 | 2 | 0.0 | 0.0 | 0.00 | 0.00 | 0.00 | 63 | 1010.5 | |
| 20260504041555 | 2 | 0.0 | 0.0 | 0.00 | 0.00 | 0.00 | 62 | 1010.6 | |
| 20260504041055 | 2 | 0.0 | 0.0 | 0.00 | 0.00 | 0.00 | 62 | 1010.6 | |
| 20260504040104 | 3 | 0.0 | 0.0 | 0.00 | 0.00 | 0.00 | 60 | 1010.5 | |
| 20260504035553 | 3 | 0.0 | 0.0 | 0.00 | 0.00 | 0.00 | 59 | 1010.4 | |
| 20260504035053 | 3 | 0.0 | 0.0 | 0.00 | 0.00 | 0.00 | 59 | 1010.4 | |
| 20260504034559 | 3 | 0.0 | 0.0 | 0.00 | 0.00 | 0.00 | 59 | 1010.4 | |
| 20260504034052 | 3 | 0.0 | 0.0 | 0.00 | 0.00 | 0.00 | 59 | 1010.3 | |
| 20260504033552 | 3 | 0.0 | 0.0 | 0.00 | 0.00 | 0.00 | 59 | 1010.3 | |
| 20260504033125 | 3 | 0.0 | 0.0 | 0.00 | 0.00 | 0.00 | 59 | 1010.3 | |
| 20260504032552 | 3 | 0.0 | 0.0 | 0.00 | 0.00 | 0.00 | 59 | 1010.2 | |
| 20260504032054 | 3 | 0.0 | 0.0 | 0.00 | 0.00 | 0.00 | 59 | 1010.3 | |
| 20260504031557 | 4 | 0.0 | 0.0 | 0.00 | 0.00 | 0.00 | 60 | 1010.2 | |
| 20260504031052 | 4 | 0.0 | 0.0 | 0.00 | 0.00 | 0.00 | 58 | 1010.2 | |
| 20260504030059 | 4 | 0.0 | 0.0 | 0.00 | 0.00 | 0.00 | 56 | 1010.0 | |
| 20260504025554 | 5 | 0.0 | 0.0 | 0.00 | 0.00 | 0.00 | 56 | 1010.2 | |
| 20260504025055 | 5 | 0.0 | 0.0 | 0.00 | 0.00 | 0.00 | 56 | 1010.1 | |
| 20260504024555 | 5 | 0.0 | 0.0 | 0.00 | 0.00 | 0.00 | 54 | 1010.1 | |
| 20260504024057 | 5 | 0.0 | 0.0 | 0.00 | 0.00 | 0.00 | 54 | 1010.2 | |
| 20260504023554 | 5 | 0.0 | 0.0 | 0.00 | 0.00 | 0.00 | 54 | 1010.1 | |
| 20260504023102 | 5 | 0.0 | 0.0 | 0.00 | 0.00 | 0.00 | 53 | 1010.1 | |
| 20260504022555 | 5 | 0.0 | 0.0 | 0.00 | 0.00 | 0.00 | 52 | 1010.1 | |
| 20260504022053 | 5 | 0.0 | 0.0 | 0.00 | 0.00 | 0.00 | 52 | 1010.0 | |
| 20260504021554 | 5 | 0.0 | 0.0 | 0.00 | 0.00 | 0.00 | 52 | 1010.0 | |
| 20260504021053 | 5 | 0.0 | 0.0 | 0.00 | 0.00 | 0.00 | 52 | 1009.9 | |
| 20260504020058 | 6 | 0.0 | 0.0 | 0.00 | 0.00 | 0.00 | 52 | 1009.9 | |
| 20260504015553 | 6 | 0.0 | 0.0 | 0.00 | 0.00 | 0.00 | 52 | 1009.8 | |
| 20260504015054 | 6 | 0.0 | 0.0 | 0.00 | 0.00 | 0.00 | 51 | 1009.8 | |
| 20260504014553 | 6 | 0.0 | 0.0 | 0.00 | 0.00 | 0.00 | 51 | 1009.7 | |
| 20260504014052 | 6 | 0.0 | 0.0 | 0.00 | 0.00 | 0.00 | 49 | 1009.7 | |
| 20260504013552 | 6 | 0.0 | 0.0 | 0.00 | 0.00 | 0.00 | 49 | 1009.7 | |
| 20260504013106 | 6 | 0.0 | 0.0 | 0.00 | 0.00 | 0.00 | 49 | 1009.6 | |
| 20260504012552 | 7 | 0.0 | 0.0 | 0.00 | 0.00 | 0.00 | 48 | 1009.6 | |
| 20260504012052 | 7 | 0.0 | 0.0 | 0.00 | 0.00 | 0.00 | 47 | 1009.6 | |
| 20260504011552 | 7 | 0.0 | 0.0 | 0.00 | 0.00 | 0.00 | 46 | 1009.5 | |
| 20260504011052 | 7 | 0.0 | 0.0 | 0.00 | 0.00 | 0.00 | 45 | 1009.4 | |
| 20260504010105 | 8 | 0.0 | 0.0 | 0.00 | 0.00 | 0.00 | 43 | 1009.2 | |
| 20260504005556 | 8 | 0.0 | 0.0 | 0.00 | 0.00 | 0.00 | 42 | 1009.1 | |
| 20260504005052 | 8 | 0.0 | 0.0 | 0.00 | 0.00 | 0.00 | 41 | 1009.0 | |
| 20260504004610 | 8 | 0.0 | 0.0 | 0.00 | 0.00 | 0.00 | 41 | 1008.9 | |
| 20260504004052 | 8 | 0.0 | 0.0 | 0.00 | 0.00 | 0.00 | 40 | 1008.8 | |
| 20260504003554 | 9 | 0.0 | 0.0 | 0.00 | 0.00 | 0.00 | 39 | 1008.8 | |
| 20260504003051 | 9 | 0.0 | 0.0 | 0.00 | 0.00 | 0.00 | 38 | 1008.8 | |
| 20260504002550 | 9 | 0.0 | 0.0 | 0.00 | 0.00 | 0.00 | 38 | 1008.7 | |
| 20260504002051 | 10 | 0.0 | 0.0 | 0.00 | 0.00 | 0.00 | 37 | 1008.6 | |
| 20260504001554 | 10 | 0.0 | 0.0 | 0.00 | 0.00 | 0.00 | 37 | 1008.5 | |
| 20260504001051 | 10 | 0.0 | 0.0 | 0.00 | 0.00 | 0.00 | 36 | 1008.4 | |
| 20260504000052 | 10 | 0.0 | 0.0 | 0.00 | 0.00 | 0.00 | 35 | 1008.3 | |
| 20260503235551 | 11 | 0.0 | 0.0 | 0.00 | 0.00 | 0.00 | 35 | 1008.3 | |
| 20260503235052 | 11 | 0.0 | 0.0 | 0.00 | 0.00 | 0.00 | 34 | 1008.3 | |
| 20260503234552 | 11 | 0.0 | 0.0 | 0.00 | 0.00 | 0.00 | 34 | 1008.2 | |
| 20260503234051 | 11 | 0.0 | 0.0 | 0.00 | 0.00 | 0.00 | 34 | 1008.1 | |
| 20260503233552 | 11 | 0.0 | 0.0 | 0.00 | 0.00 | 0.00 | 33 | 1008.1 | |
| 20260503233051 | 11 | 0.0 | 0.0 | 0.00 | 0.00 | 0.00 | 33 | 1008.0 | |
| 20260503232551 | 11 | 0.0 | 0.0 | 0.00 | 0.00 | 0.00 | 32 | 1008.0 | |
| 20260503232051 | 11 | 0.0 | 0.0 | 0.00 | 0.00 | 0.00 | 32 | 1008.0 | |
| 20260503231551 | 11 | 0.0 | 0.0 | 0.00 | 0.00 | 0.00 | 32 | 1008.0 | |
| 20260503231050 | 12 | 0.0 | 0.0 | 0.00 | 0.00 | 0.00 | 31 | 1007.9 | |
| 20260503230059 | 12 | 0.0 | 0.0 | 0.00 | 0.00 | 0.00 | 31 | 1008.0 | |
| 20260503225551 | 12 | 0.0 | 0.0 | 0.00 | 0.00 | 0.00 | 31 | 1008.0 | |
| 20260503225051 | 12 | 0.0 | 0.0 | 0.00 | 0.00 | 0.00 | 31 | 1007.9 | |
| 20260503224552 | 12 | 0.0 | 0.0 | 0.00 | 0.00 | 0.00 | 31 | 1007.9 | |
| 20260503224052 | 12 | 0.0 | 0.0 | 0.00 | 0.00 | 0.00 | 30 | 1007.9 | |
| 20260503223552 | 12 | 0.0 | 0.0 | 0.00 | 0.00 | 0.00 | 31 | 1007.9 | |
| 20260503223057 | 12 | 0.0 | 0.0 | 0.00 | 0.00 | 0.00 | 30 | 1007.9 | |
| 20260503222549 | 12 | 0.0 | 0.0 | 0.00 | 0.00 | 0.00 | 31 | 1007.9 | |
| 20260503222050 | 12 | 0.0 | 0.0 | 0.00 | 0.00 | 0.00 | 31 | 1007.9 | |
| 20260503221553 | 12 | 0.0 | 0.0 | 0.00 | 0.00 | 0.00 | 32 | 1007.9 | |
| 20260503221049 | 12 | 0.0 | 0.0 | 0.00 | 0.00 | 0.00 | 32 | 1007.9 | |
| 20260503220052 | 12 | 0.0 | 0.0 | 0.00 | 0.00 | 0.00 | 32 | 1007.9 | |
| 20260503215552 | 12 | 0.0 | 0.0 | 0.00 | 0.00 | 0.00 | 35 | 1007.9 | |
| 20260503215051 | 12 | 0.0 | 0.0 | 0.00 | 0.00 | 0.00 | 34 | 1007.9 | |
| 20260503214552 | 12 | 0.0 | 0.0 | 0.00 | 0.00 | 0.00 | 35 | 1008.0 | |
| 20260503214053 | 12 | 0.0 | 0.0 | 0.00 | 0.00 | 0.00 | 36 | 1008.0 | |
| 20260503213551 | 12 | 0.0 | 0.0 | 0.00 | 0.00 | 0.00 | 35 | 1007.9 | |
| 20260503213104 | 12 | 0.0 | 0.0 | 0.00 | 0.00 | 0.00 | 35 | 1007.9 | |
| 20260503212552 | 12 | 0.0 | 0.0 | 0.00 | 0.00 | 0.00 | 34 | 1007.9 | |
| 20260503212050 | 12 | 0.0 | 0.0 | 0.00 | 0.00 | 0.00 | 35 | 1007.9 | |
| 20260503211551 | 12 | 0.0 | 0.0 | 0.00 | 0.00 | 0.00 | 35 | 1008.0 | |
| 20260503211050 | 12 | 0.0 | 0.0 | 0.00 | 0.00 | 0.00 | 38 | 1007.9 | |
| 20260503210056 | 12 | 0.0 | 0.0 | 0.00 | 0.00 | 0.00 | 37 | 1007.8 | |
| 20260503205548 | 12 | 0.0 | 0.0 | 0.00 | 0.00 | 0.00 | 36 | 1007.7 | |
| 20260503205046 | 12 | 0.0 | 0.0 | 0.00 | 0.00 | 0.00 | 36 | 1007.7 | |
| 20260503204552 | 12 | 0.0 | 0.0 | 0.00 | 0.00 | 0.00 | 35 | 1007.6 | |
| 20260503204046 | 12 | 0.0 | 0.0 | 0.00 | 0.00 | 0.00 | 36 | 1007.5 | |
| 20260503203546 | 12 | 0.0 | 0.0 | 0.00 | 0.00 | 0.00 | 36 | 1007.6 | |
| 20260503203045 | 12 | 0.0 | 0.0 | 0.00 | 0.00 | 0.00 | 36 | 1007.6 | |
| 20260503202545 | 12 | 0.0 | 0.0 | 0.00 | 0.00 | 0.00 | 37 | 1007.6 | |
| 20260503202046 | 12 | 0.0 | 0.0 | 0.00 | 0.00 | 0.00 | 34 | 1007.5 | |
| 20260503201546 | 12 | 0.0 | 0.0 | 0.00 | 0.00 | 0.00 | 35 | 1007.6 | |
| 20260503201045 | 12 | 0.0 | 0.0 | 0.00 | 0.00 | 0.00 | 37 | 1007.4 | |
| 20260503200051 | 11 | 0.0 | 0.0 | 0.00 | 0.00 | 0.00 | 37 | 1007.3 | |
| 20260503195545 | 11 | 0.0 | 0.0 | 0.00 | 0.00 | 0.00 | 36 | 1007.5 | |
| 20260503195045 | 12 | 0.0 | 0.0 | 0.00 | 0.00 | 0.00 | 34 | 1007.4 | |
| 20260503194547 | 12 | 0.0 | 0.0 | 0.00 | 0.00 | 0.00 | 34 | 1007.5 | |
| 20260503194045 | 12 | 0.0 | 0.0 | 0.00 | 0.00 | 0.00 | 37 | 1007.4 | |
| 20260503193545 | 12 | 0.0 | 0.0 | 0.00 | 0.00 | 0.00 | 37 | 1007.4 | |
| 20260503193052 | 12 | 0.0 | 0.0 | 0.00 | 0.00 | 0.00 | 38 | 1007.5 | |
| 20260503192545 | 12 | 0.0 | 0.0 | 0.00 | 0.00 | 0.00 | 38 | 1007.5 | |
| 20260503192044 | 12 | 0.0 | 0.0 | 0.00 | 0.00 | 0.00 | 35 | 1007.4 | |
| 20260503191545 | 12 | 0.0 | 0.0 | 0.00 | 0.00 | 0.00 | 37 | 1007.5 | |
| 20260503191046 | 12 | 0.0 | 0.0 | 0.00 | 0.00 | 0.00 | 37 | 1007.6 | |
| 20260503190045 | 12 | 0.0 | 0.0 | 0.00 | 0.00 | 0.00 | 37 | 1007.6 | |
| 20260503185549 | 12 | 0.0 | 0.0 | 0.00 | 0.00 | 0.00 | 35 | 1007.6 | |
| 20260503185046 | 12 | 0.0 | 0.0 | 0.00 | 0.00 | 0.00 | 35 | 1007.7 | |
| 20260503184555 | 12 | 0.0 | 0.0 | 0.00 | 0.00 | 0.00 | 35 | 1007.5 | |
| 20260503184049 | 13 | 0.0 | 0.0 | 0.00 | 0.00 | 0.00 | 36 | 1007.5 | |
| 20260503183547 | 13 | 0.0 | 0.0 | 0.00 | 0.00 | 0.00 | 35 | 1007.6 | |
| 20260503183100 | 13 | 0.0 | 0.0 | 0.00 | 0.00 | 0.00 | 37 | 1007.6 | |
| 20260503182544 | 13 | 0.0 | 0.0 | 0.00 | 0.00 | 0.00 | 42 | 1007.5 | |
| 20260503182043 | 12 | 0.0 | 0.0 | 0.00 | 0.00 | 0.00 | 42 | 1007.4 | |
| 20260503181544 | 12 | 0.0 | 0.0 | 0.00 | 0.00 | 0.00 | 37 | 1007.5 | |
| 20260503181043 | 12 | 0.0 | 0.0 | 0.00 | 0.00 | 0.00 | 37 | 1007.4 | |
| 20260503180046 | 12 | 0.0 | 0.0 | 0.00 | 0.00 | 0.00 | 38 | 1007.4 | |
| 20260503175542 | 12 | 0.0 | 0.0 | 0.00 | 0.00 | 0.00 | 40 | 1007.5 |